La Ceiba, Honduras

8:52 PM CST on February 25, 2017 (GMT -0600)
Goloson International

Weather History for MHLC - November, 2012

Change the Weather History Date:

Friday, November 2, 2012

  Actual Average Record
Temperature  
Mean Temperature 76 °F -  
Max Temperature 82 °F 80 °F 91 °F (2015)
Min Temperature 71 °F 68 °F 68 °F (2000)
Cooling Degree Days 12    
Growing Degree Days 26 (Base 50)    
Moisture  
Dew Point 71 °F    
Average Humidity 85    
Maximum Humidity 94    
Minimum Humidity 62    
Precipitation  
Precipitation 0.24 in 0.70 in - ()
Sea Level Pressure  
Sea Level Pressure 29.97 in    
Wind  
Wind Speed 4 mph ()    
Max Wind Speed 10 mph    
Max Gust Speed -    
Visibility 5.2 miles    
Events Rain    
Averages and records for this station are not official NWS values.
T = Trace of Precipitation, MM = Missing Value Source: Averaged Metar Reports

Daily Weather History Graph

Daily Weather History Graph

Search for Another Location

Airport or City:

Trip Planner

Search our weather history database for the weather conditions in past years. The results will help you decide how hot, cold, wet, or windy it might be!

Date:

Astronomy

Nov. 02, 2012 Rise Set
Actual Time 5:44 AM CST 5:17 PM CST
Civil Twilight 5:22 AM CST 5:39 PM CST
Nautical Twilight 4:56 AM CST 6:04 PM CST
Astronomical Twilight 4:31 AM CST 6:30 PM CST
Moon 8:21 PM CST (11/2) 8:46 AM CST (11/2)
Length of Visible Light 12h 16m
Length of Day
11h 32m
Waning Gibbous, 87% of the Moon is Illuminated
Nov 2
Waning Gibbous
Nov 6
Last Quarter
Nov 13
New
Nov 20
First Quarter
Nov 28
Full

Hourly Weather History & Observations

Time (CST) Temp. Heat Index Dew Point Humidity Pressure Visibility Wind Dir Wind Speed Gust Speed Precip Events Conditions
12:00 AM 71 °F - 68 °F 88% 30.01 in 5 mi ESE 10.4 mph - - Rain Light Rain
12:00 AM 71.6 °F - 68.0 °F 88% 30.01 in 5.0 mi ESE 10.4 mph - N/A Rain Light Rain
6:00 AM 71 °F - 69 °F 92% 29.98 in 11 mi Calm Calm - -   Haze
6:00 AM 71.6 °F - 69.8 °F 94% 29.98 in 6.2 mi Calm Calm - N/A   Scattered Clouds
7:00 AM 71.6 °F - 69.8 °F 94% 29.98 in 6.2 mi Calm Calm - N/A   Mostly Cloudy
8:00 AM 75.2 °F - 69.8 °F 83% 29.98 in 6.2 mi South 2.3 mph - N/A   Mostly Cloudy
9:00 AM 78.8 °F - 71.6 °F 78% 30.01 in 6.2 mi East 2.3 mph - N/A   Mostly Cloudy
10:00 AM 77.0 °F - 73.4 °F 89% 30.01 in 6.2 mi NNE 4.6 mph - N/A   Mostly Cloudy
11:00 AM 80.6 °F 84.6 °F 71.6 °F 74% 30.01 in 6.2 mi Calm Calm - N/A   Mostly Cloudy
12:00 PM 80 °F - 69 °F 62% 29.97 in 6 mi ESE 4.6 mph - -   Partly Cloudy
12:00 PM 80.6 °F 83.9 °F 69.8 °F 70% 29.95 in 6.2 mi ESE 4.6 mph - N/A   Mostly Cloudy
2:00 PM 78.8 °F - 71.6 °F 78% 29.92 in 2.5 mi East 8.1 mph - N/A   Drizzle
3:00 PM 80 °F - 71 °F 67% 29.93 in 8 mi NE 5.8 mph - - Rain Light Drizzle
3:00 PM 80.6 °F 84.6 °F 71.6 °F 74% 29.92 in 6.2 mi NE 5.8 mph - N/A   Mostly Cloudy
4:00 PM 75.2 °F - 71.6 °F 89% 29.92 in 1.2 mi NE 9.2 mph - N/A Rain Light Rain
5:00 PM 73.4 °F - 71.6 °F 94% 29.92 in 5.0 mi ENE 3.5 mph - N/A   Mostly Cloudy
6:00 PM 74 °F - 72 °F 91% 29.95 in 1 mi SE 3.5 mph - - Rain Light Rain
6:00 PM 73.4 °F - 71.6 °F 94% 29.95 in 1.2 mi SE 3.5 mph - N/A Rain Rain
7:00 PM 73.4 °F - 71.6 °F 94% 29.98 in 1.2 mi East 5.8 mph - N/A   Drizzle
8:00 PM 73.4 °F - 69.8 °F 88% 29.98 in 2.5 mi East 6.9 mph - N/A   Overcast
9:00 PM 72 °F - 70 °F 93% 30.01 in 6 mi East 2.3 mph - - Rain Light Rain
9:00 PM 73.4 °F - 69.8 °F 88% 30.01 in 6.2 mi East 2.3 mph - N/A   Mostly Cloudy
10:00 PM 73.4 °F - 71.6 °F 94% 30.01 in 6.2 mi SE 2.3 mph - N/A   Mostly Cloudy
11:00 PM 73.4 °F - 71.6 °F 94% 29.98 in 6.2 mi Variable 2.3 mph - N/A   Mostly Cloudy